AirNav   ATP
 
 799 users online  

10G Holmes County Airport
Millersburg, Ohio, USA

GOING TO MILLERSBURG?


FAA INFORMATION EFFECTIVE 19 JULY 2018

Location

FAA Identifier: 10G
Lat/Long: 40-32-12.1245N / 081-57-21.3882W
40-32.202075N / 081-57.356470W
40.5367013 / -81.9559412
(estimated)
Elevation: 1226.5 ft. / 373.8 m (surveyed)
Variation: 08W (2015)
From city: 2 miles SW of MILLERSBURG, OH
Time zone: UTC -4 (UTC -5 during Standard Time)
Zip code: 44654

Airport Operations

Airport use: Open to the public
Activation date: 03/1962
Control tower: no
ARTCC: INDIANAPOLIS CENTER
FSS: CLEVELAND FLIGHT SERVICE STATION
NOTAMs facility: CLE (NOTAM-D service available)
Attendance: MON-FRI 0800-1900, ALL SAT 1000-1800, ALL SUN 1230-1700
Wind indicator: lighted
Segmented circle: no
Lights: ACTVT MIRL RY 09/27, PAPI RY 27 AND REIL RYS 09 & 27 - 123.4.
Beacon: white-green (lighted land airport)
Operates sunset to sunrise.

Airport Communications

CTAF/UNICOM: 123.0
WX AWOS-3: 128.325 (330-674-6279)
WX AWOS-3 at I40 (14 nm S): 118.875 (740-295-7370)
  • APCH/DEP SVC PRVDD BY INDIANAPOLIS ARTCC ON FREQS 124.45/370.9 (ZANESVILLE RCAG).

Nearby radio navigation aids

VOR radial/distance  VOR name  Freq  Var
TVTr062/9.1TIVERTON VOR/DME116.5003W
BSVr247/26.8BRIGGS VOR/DME112.4004W
CTWr317/28.6NEWCOMERSTOWN VOR/DME111.8007W
MFDr128/35.1MANSFIELD VORTAC108.8003W
ZZVr001/35.9ZANESVILLE VOR/DME114.9506W
APEr057/37.0APPLETON VORTAC116.7006W

 
NDB name  Hdg/Dist  Freq  Var  ID
NEWARK043/38.552406WHEH .... . ....

Airport Services

Fuel available: 100LL JET-A+
Parking: hangars and tiedowns
Airframe service: MAJOR
Powerplant service: MAJOR
Bottled oxygen: HIGH
Bulk oxygen: NONE

Runway Information

Runway 9/27

Dimensions: 4400 x 75 ft. / 1341 x 23 m
Surface: asphalt, in good condition
Weight bearing capacity: 
Single wheel: 14.0
Double wheel: 25.0
Runway edge lights: medium intensity
RUNWAY 9  RUNWAY 27
Latitude: 40-32.182148N40-32.222002N
Longitude: 081-57.830652W081-56.882287W
Elevation: 1226.5 ft.1183.2 ft.
Gradient: 1.0%1.0%
Traffic pattern: leftleft
Runway heading: 095 magnetic, 087 true275 magnetic, 267 true
Markings: nonprecision, in good conditionnonprecision, in good condition
Visual slope indicator: 2-light PAPI on left (3.00 degrees glide path)
Runway end identifier lights: yesyes
Touchdown point: yes, no lightsyes, no lights
Obstructions: 60 ft. trees, 1425 ft. from runway, 325 ft. right of centerline, 20:1 slope to clearnone

Airport Ownership and Management from official FAA records

Ownership: Publicly-owned
Owner: HOLMES CO ARPT AUTH
10 SOUTH CLAY ST
MILLERSBURG, OH 44654
Phone (330) 674-0674
Manager: LARRY CLARK
4501 TWP RD 307
MILLERSBURG, OH 44654
Phone 330-674-0674
AMGR CELL: 330-231-3715

Airport Operational Statistics

Aircraft based on the field: 15
Single engine airplanes: 11
Multi engine airplanes: 3
Jet airplanes: 1
    
Aircraft operations: avg 59/day *
70% local general aviation
23% transient general aviation
5% military
2% air taxi
* for 12-month period ending 12 August 2016

Additional Remarks

DEER ON & INVOF ARPT.

Instrument Procedures

NOTE: All procedures below are presented as PDF files. If you need a reader for these files, you should download the free Adobe Reader.

NOT FOR NAVIGATION. Please procure official charts for flight.
FAA instrument procedures published for use from 19 July 2018 at 0901Z to 16 August 2018 at 0900Z.

 
IAPs - Instrument Approach Procedures
RNAV (GPS) RWY 09   download (174KB)
RNAV (GPS) RWY 27   download (188KB)
NOTE: Special Take-Off Minimums/Departure Procedures apply   download (234KB)

Other nearby airports with instrument procedures:

I40 - Richard Downing Airport (14 nm S)
KBJJ - Wayne County Airport (21 nm N)
KPHD - Harry Clever Field Airport (25 nm E)
3G4 - Ashland County Airport (26 nm NW)
4I3 - Knox County Airport (29 nm SW)
 
Loc | Ops | Rwys | IFR | FBO | Links
Com | Nav | Svcs | Stats | Notes

City of Findlay
 
Area around 10G (Holmes County Airport)
 
Road maps at: MapQuest Bing Google
 
Aerial photo
WARNING: Photo may not be current or correct
Aerial photo of 10G (Holmes County Airport)
Do you have a better or more recent aerial photo of Holmes County Airport that you would like to share? If so, please send us your photo.

 
Sectional chart

 
Airport distance calculator
Flying to Holmes County Airport? Find the distance to fly.

From to 10G

Sunrise and sunset
Times for 22-Jul-2018
 Local
(UTC-4)
 Zulu
(UTC)
Morning civil twilight05:4509:45
Sunrise06:1710:17
Sunset20:5200:52
Evening civil twilight21:2301:23

Current date and time
Zulu (UTC)  23-Jul-2018 03:10:10
Local (UTC-4)  22-Jul-2018 23:10:10
 
METAR
KBJJ 
20nm N 
230256Z AUTO 01006KT 10SM FEW005 OVC019 18/17 A2986 RMK AO2 RAE08 SLP106 P0000 60005 T01780172 50010 $
KPHD 
25nm E 
230253Z AUTO 32003KT 10SM FEW016 BKN020 OVC060 22/20 A2984 RMK AO2 SLP099 T02170200 51014
K4I3 
29nm SW 
230242Z AUTO 02008KT 10SM SCT012 BKN036 OVC041 19/18 A2986 RMK AO2
KMFD 
31nm NW 
230252Z AUTO 36006KT 10SM OVC039 18/17 A2987 RMK AO2 SLP106 T01780167 50007
KCAK 
32nm NE 
230251Z 36006KT 3SM FEW006 OVC010 20/18 A2986 RMK AO2 SFC VIS 10 SLP102 60019 T02000178 51014
KZZV 
35nm S 
230253Z AUTO 35003KT 9SM BKN014 OVC120 21/20 A2982 RMK AO2 SLP093 60005 T02110200 51008
KAKR 
37nm NE 
230254Z AUTO 01004KT 10SM BKN010 OVC018 20/18 A2985 RMK AO2 RAE25 CIG 008V013 SLP103 P0000 60002 T02000178 51014
KCDI 
38nm SE 
230255Z AUTO 00000KT 10SM SCT075 21/20 A2983 RMK AO2 T02050202
KVTA 
39nm SW 
230254Z AUTO VRB04KT 10SM BKN009 BKN014 OVC022 19/18 A2983 RMK AO2 RAE54 SLP096 P0000 60003 T01940183 51011
TAF
KMFD 
31nm NW 
222206Z 2222/2318 01010KT P6SM OVC007 TEMPO 2300/2303 SCT007 OVC012 FM230300 01006KT P6SM SCT015 OVC020 FM230700 VRB03KT P6SM BKN025 TEMPO 2310/2313 4SM BR BKN015
KCAK 
32nm NE 
221737Z 2218/2318 06004KT P6SM SCT025 BKN035 TEMPO 2218/2221 BKN025 FM230000 02007KT P6SM VCSH SCT025 BKN035 FM230300 04004KT P6SM OVC035 TEMPO 2310/2313 5SM BR
KZZV 
35nm S 
230201Z 2302/2324 VRB04KT P6SM VCSH OVC035 FM230400 05003KT P6SM BKN080 FM230800 05003KT P6SM OVC025 FM231500 13004KT P6SM BKN040 FM231800 13003KT P6SM VCTS BKN040CB
NOTAMs
Click for the latest NOTAMs
NOTAMs are issued by the DoD/FAA and will open in a separate window not controlled by AirNav.

 

 
 

FBO, Fuel Providers, and Aircraft Ground Support

  
 Business Name 
 
 Contact 
 
 Services / Description 
 
Fuel Prices
 
Comments
  
Professionals Aviation Company Inc. 330-674-0674
no information available

If you are affiliated with Professionals Aviation Company Inc. and would like to show here your services, contact info, web link, logo, and more, click here
100LL Jet A
FS $4.98 $4.20 
 Updated 11-Jul-2018
 
   2 read write
FS=Full service
Update Fuel Prices
 

Would you like to see your business listed on this page?

 If your business provides an interesting product or service to pilots, flight crews, aircraft, or users of the Holmes County Airport, you should consider listing it here.  To start the listing process, click on the button below
 
Add a business
 

Other Pages about Holmes County Airport

Update a link
 
Copyright © AirNav, LLC. All rights reserved. Privacy Policy  Contact